Location: Alladorf
(49.9620°N, 11.3790°E)
Time: 20:49:34
(UTC+00:00)

METEOR-M - Pass Details

Date: 29 November 2020
Orbit: 817 x 818 km, 98.5° (Epoch: 25 January)

Event Time Altitude Azimuth Distance (km) Brightness Sun altitude
Rises 03:50:24 0° 16° (NNE) 3,359 7.5 -27.9°
Reaches altitude 10° 03:52:47 10° 20° (NNE) 2,422 6.8 -27.5°
Maximum altitude 03:58:07 64° 102° (ESE) 908 4.5 -26.6°
Drops below altitude 10° 04:03:24 10° 184° (S) 2,406 6.6 -25.8°
Sets 04:05:45 0° 187° (S) 3,334 7.3 -25.4°
